User: anonymous   Login
Location: ??????
(55.6500°N, 37.8000°E)
Time: 17:29:24
(UTC+00:00)
Language:

Cosmos 44 Rocket - Orbit

View from above orbital plane
View from above orbital plane
View from above satellite
View from above satellite

Ground track
Ground track

The orbit data is extracted from the following two-line orbital elements,

1 00877U 64053B   24172.93218315  .00000344  00000-0  93179-4 0  9992
2 00877  65.0785   7.4048 0068743 199.0911 160.7611 14.60368691175230
Epoch (UTC): 20 June 2024 22:22:20
Eccentricity: 0.0068743
inclination: 65.0785°
perigee height: 643 km
apogee height: 740 km
right ascension of ascending node: 7.4048°
argument of perigee: 199.0911°
revolutions per day: 14.60368691
mean anomaly at epoch: 160.7611°
orbit number at epoch: 17523

The dashed part of the orbit path shows where the satellite is in the earth's shadow,  

DLR